CST,Max TemperatureF,Mean TemperatureF,Min TemperatureF,Max Dew PointF,MeanDew PointF,Min DewpointF,Max Humidity, Mean Humidity, Min Humidity, Max Sea Level PressureIn, Mean Sea Level PressureIn, Min Sea Level PressureIn, Max VisibilityMiles, Mean VisibilityMiles, Min VisibilityMiles, Max Wind SpeedMPH, Mean Wind SpeedMPH, Max Gust SpeedMPH,PrecipitationIn, CloudCover, Events, WindDirDegrees
2012-2-1,35,30,26,35,32,27,100,98,87,30.17,30.10,29.95,10,9,4,17,10,24,0.00,8,,297
2012-2-2,33,31,29,34,31,30,100,100,93,30.43,30.23,30.16,17,4,1,10,4,,0.00,8,,271
2012-2-3,32,26,21,32,27,21,100,100,93,30.52,30.46,30.43,10,6,0,7,2,,0.00,4,Fog,77
2012-2-4,46,29,12,34,18,12,100,94,40,30.45,30.38,30.26,10,4,0,9,2,,0.00,2,Fog,299
2012-2-5,32,26,19,30,24,18,100,99,93,30.38,30.31,30.21,10,5,0,12,6,,0.00,5,Fog,284
2012-2-6,39,31,23,32,28,23,100,94,65,30.23,30.15,30.07,10,10,10,13,8,,0.00,6,,259
2012-2-7,32,24,15,32,23,12,100,84,64,30.49,30.38,30.24,10,10,10,10,6,20,0.00,8,,7
2012-2-8,32,20,8,14,8,1,100,65,30,30.47,30.39,30.28,10,10,10,13,6,,0.00,0,,277
2012-2-9,35,25,15,25,15,6,80,65,38,30.27,30.11,29.93,10,10,10,15,7,,0.00,2,,237
2012-2-10,32,19,6,30,16,-5,100,79,51,30.41,30.08,29.88,10,8,1,20,12,28,0.01,6,Snow,311
2012-2-11,17,9,1,-2,-5,-9,64,50,40,30.48,30.44,30.40,10,10,10,21,13,26,0.00,0,,300
2012-2-12,30,20,9,4,1,-1,64,46,27,30.40,30.31,30.17,10,10,10,17,12,21,0.00,0,,269
2012-2-13,32,18,5,28,19,2,100,80,48,30.16,29.94,29.78,10,6,1,13,5,21,0.03,7,Snow,164
2012-2-14,33,29,25,32,27,18,100,96,64,30.46,29.83,29.77,10,8,2,13,1,20,0.00,7,Snow,214
2012-2-15,42,34,26,34,31,27,100,93,66,30.01,29.97,29.91,10,9,4,8,5,,0.00,6,,183
2012-2-16,42,32,23,32,24,18,100,76,39,30.10,30.06,29.99,10,8,4,20,9,25,0.00,3,,276
2012-2-17,42,32,21,32,28,20,100,86,57,30.11,30.04,29.97,10,9,0,16,6,,0.00,5,Rain-Snow,274
2012-2-18,37,27,14,30,22,14,100,84,38,30.27,30.17,30.07,10,10,10,15,9,23,0.00,4,,308
2012-2-19,41,24,8,23,13,9,100,85,33,30.24,30.21,30.15,10,6,1,8,1,,0.00,0,,173
2012-2-20,42,27,12,25,19,12,99,69,38,30.24,30.10,29.81,10,10,10,16,7,21,0.00,0,,131
2012-2-21,41,36,32,37,31,19,100,89,60,29.79,29.63,29.53,10,8,2,23,11,30,0.03,7,Snow,174
2012-2-22,41,32,21,28,23,18,100,73,42,29.58,29.48,29.40,10,10,4,16,10,21,0.00,4,Snow,264
2012-2-23,41,28,16,27,21,16,100,74,45,29.64,29.57,29.48,10,10,10,8,3,,0.00,5,,63
2012-2-24,33,26,20,29,22,13,100,80,52,29.97,29.75,29.61,10,10,4,21,6,26,0.00,7,Snow,294
2012-2-25,31,22,12,15,11,8,82,69,46,30.25,30.11,29.97,10,10,10,18,12,24,0.00,5,Snow,287
2012-2-26,48,34,19,29,21,14,80,63,43,30.21,29.97,29.80,10,10,10,25,13,34,0.00,4,,179
2012-2-27,35,26,15,20,18,16,100,71,48,30.48,30.23,30.01,10,10,10,24,17,31,0.00,6,,274
2012-2-28,35,27,19,34,27,19,100,86,56,30.44,30.13,29.77,10,8,3,20,8,22,0.00,8,Rain-Snow,116
2012-2-29,39,36,32,37,34,32,100,100,93,29.75,29.48,29.30,10,6,2,22,14,29,0.59,8,Rain-Snow,118